Time,TemperatureF,DewpointF,PressureIn,WindDirection,WindDirectionDegrees,WindSpeedMPH,WindSpeedGustMPH,Humidity,HourlyPrecipIn,Conditions,Clouds,dailyrainin,SoftwareType,DateUTC
2013-05-15 00:00:00,43.1,34.7,30.08,West,266,1.0,3.0,72,0.00,,,0.00,WeatherCatV1.02B3,2013-05-15 04:00:00,
2013-05-15 00:01:00,43.0,34.6,30.08,West,266,0.0,3.0,72,0.00,,,0.00,WeatherCatV1.02B3,2013-05-15 04:01:00,
2013-05-15 00:06:00,43.0,34.9,30.08,West,266,2.0,3.0,73,0.00,,,0.00,WeatherCatV1.02B3,2013-05-15 04:06:00,
2013-05-15 00:11:00,42.9,34.9,30.08,West,266,0.0,3.0,73,0.00,,,0.00,WeatherCatV1.02B3,2013-05-15 04:11:00,
2013-05-15 00:16:00,42.8,34.8,30.08,West,266,0.0,2.0,73,0.00,,,0.00,WeatherCatV1.02B3,2013-05-15 04:16:00,
2013-05-15 00:21:00,42.7,34.7,30.08,West,266,0.0,4.0,73,0.00,,,0.00,WeatherCatV1.02B3,2013-05-15 04:21:00,
2013-05-15 00:26:00,42.8,34.4,30.08,West,266,0.0,1.0,72,0.00,,,0.00,WeatherCatV1.02B3,2013-05-15 04:26:00,
2013-05-15 00:31:00,42.7,34.7,30.08,West,266,0.0,1.0,73,0.00,,,0.00,WeatherCatV1.02B3,2013-05-15 04:31:00,
2013-05-15 00:36:00,42.7,34.7,30.08,West,266,0.0,0.0,73,0.00,,,0.00,WeatherCatV1.02B3,2013-05-15 04:36:00,
2013-05-15 00:41:00,42.7,34.7,30.08,West,266,2.0,2.0,73,0.00,,,0.00,WeatherCatV1.02B3,2013-05-15 04:41:00,
2013-05-15 00:46:00,42.7,34.7,30.08,West,266,0.0,0.0,73,0.00,,,0.00,WeatherCatV1.02B3,2013-05-15 04:46:00,
2013-05-15 00:51:00,42.7,34.3,30.08,West,266,0.0,0.0,72,0.00,,,0.00,WeatherCatV1.02B3,2013-05-15 04:51:00,
2013-05-15 00:55:00,42.5,34.1,30.08,West,266,0.0,0.0,72,0.00,,,0.00,WeatherCatV1.02B3,2013-05-15 04:55:00,
2013-05-15 01:00:00,42.4,34.4,30.08,West,266,0.0,0.0,73,0.00,,,0.00,WeatherCatV1.02B3,2013-05-15 05:00:00,
2013-05-15 01:05:00,42.3,34.3,30.08,West,266,0.0,3.0,73,0.00,,,0.00,WeatherCatV1.02B3,2013-05-15 05:05:00,
2013-05-15 01:10:00,42.4,34.7,30.08,SW,230,1.0,6.0,74,0.00,,,0.00,WeatherCatV1.02B3,2013-05-15 05:10:00,
2013-05-15 01:15:00,42.4,34.4,30.08,SW,230,0.0,0.0,73,0.00,,,0.00,WeatherCatV1.02B3,2013-05-15 05:15:00,
2013-05-15 01:20:00,42.4,34.4,30.08,SW,230,0.0,0.0,73,0.00,,,0.00,WeatherCatV1.02B3,2013-05-15 05:20:00,
2013-05-15 01:25:00,42.3,33.9,30.08,SW,229,0.0,0.0,72,0.00,,,0.00,WeatherCatV1.02B3,2013-05-15 05:25:00,
2013-05-15 01:30:00,42.2,33.8,30.08,SW,230,0.0,2.0,72,0.00,,,0.00,WeatherCatV1.02B3,2013-05-15 05:30:00,
2013-05-15 01:35:00,42.1,33.7,30.08,SW,229,0.0,2.0,72,0.00,,,0.00,WeatherCatV1.02B3,2013-05-15 05:35:00,
2013-05-15 01:40:00,42.0,33.6,30.08,SW,230,0.0,3.0,72,0.00,,,0.00,WeatherCatV1.02B3,2013-05-15 05:40:00,
2013-05-15 01:45:00,41.9,33.5,30.08,SW,230,0.0,0.0,72,0.00,,,0.00,WeatherCatV1.02B3,2013-05-15 05:45:00,
2013-05-15 01:50:00,41.8,33.4,30.08,SW,230,0.0,2.0,72,0.00,,,0.00,WeatherCatV1.02B3,2013-05-15 05:50:00,
2013-05-15 01:55:00,41.7,33.7,30.07,SW,229,0.0,2.0,73,0.00,,,0.00,WeatherCatV1.02B3,2013-05-15 05:55:00,
2013-05-15 02:00:00,41.6,33.6,30.08,SW,230,0.0,1.0,73,0.00,,,0.00,WeatherCatV1.02B3,2013-05-15 06:00:00,
2013-05-15 02:05:00,41.4,33.4,30.08,SW,230,0.0,0.0,73,0.00,,,0.00,WeatherCatV1.02B3,2013-05-15 06:05:00,
2013-05-15 02:10:00,41.2,33.2,30.08,SW,230,0.0,2.0,73,0.00,,,0.00,WeatherCatV1.02B3,2013-05-15 06:10:00,
2013-05-15 02:15:00,41.0,34.7,30.08,SW,230,0.0,1.0,78,0.00,,,0.00,WeatherCatV1.02B3,2013-05-15 06:15:00,
2013-05-15 02:20:00,40.7,33.1,30.08,SW,229,0.0,0.0,74,0.00,,,0.00,WeatherCatV1.02B3,2013-05-15 06:20:00,
2013-05-15 02:25:00,40.5,32.9,30.08,SW,229,0.0,0.0,74,0.00,,,0.00,WeatherCatV1.02B3,2013-05-15 06:25:00,
2013-05-15 02:30:00,40.4,33.1,30.08,SW,230,0.0,2.0,75,0.00,,,0.00,WeatherCatV1.02B3,2013-05-15 06:30:00,
2013-05-15 02:35:00,40.2,32.9,30.08,SW,230,0.0,0.0,75,0.00,,,0.00,WeatherCatV1.02B3,2013-05-15 06:35:00,
2013-05-15 02:40:00,40.0,32.7,30.07,SW,230,0.0,1.0,75,0.00,,,0.00,WeatherCatV1.02B3,2013-05-15 06:40:00,
2013-05-15 02:45:00,40.0,32.7,30.08,SW,230,0.0,3.0,75,0.00,,,0.00,WeatherCatV1.02B3,2013-05-15 06:45:00,
2013-05-15 02:50:00,40.0,32.7,30.08,SW,230,0.0,0.0,75,0.00,,,0.00,WeatherCatV1.02B3,2013-05-15 06:50:00,
2013-05-15 02:55:00,40.0,32.7,30.08,SW,230,0.0,1.0,75,0.00,,,0.00,WeatherCatV1.02B3,2013-05-15 06:55:00,
2013-05-15 03:00:00,40.0,32.4,30.08,SW,223,3.0,5.0,74,0.00,,,0.00,WeatherCatV1.02B3,2013-05-15 07:00:00,
2013-05-15 03:05:00,40.2,32.6,30.08,SW,224,2.0,6.0,74,0.00,,,0.00,WeatherCatV1.02B3,2013-05-15 07:05:00,
2013-05-15 03:10:00,40.4,32.4,30.08,SW,222,3.0,6.0,73,0.00,,,0.00,WeatherCatV1.02B3,2013-05-15 07:10:00,
2013-05-15 03:15:00,40.5,32.9,30.08,SW,221,0.0,4.0,74,0.00,,,0.00,WeatherCatV1.02B3,2013-05-15 07:15:00,
2013-05-15 03:20:00,40.5,32.5,30.08,SW,220,1.0,3.0,73,0.00,,,0.00,WeatherCatV1.02B3,2013-05-15 07:20:00,
2013-05-15 03:25:00,40.4,33.1,30.08,SW,220,0.0,0.0,75,0.00,,,0.00,WeatherCatV1.02B3,2013-05-15 07:25:00,
2013-05-15 03:30:00,40.4,33.4,30.08,SW,220,0.0,2.0,76,0.00,,,0.00,WeatherCatV1.02B3,2013-05-15 07:30:00,
2013-05-15 03:35:00,40.2,33.2,30.08,SW,220,0.0,1.0,76,0.00,,,0.00,WeatherCatV1.02B3,2013-05-15 07:35:00,
2013-05-15 03:40:00,40.0,32.7,30.08,SW,220,0.0,1.0,75,0.00,,,0.00,WeatherCatV1.02B3,2013-05-15 07:40:00,
2013-05-15 03:46:00,39.9,32.3,30.08,SW,220,0.0,5.0,74,0.00,,,0.00,WeatherCatV1.02B3,2013-05-15 07:46:00,
2013-05-15 03:51:00,40.0,32.7,30.08,SW,220,0.0,0.0,75,0.00,,,0.00,WeatherCatV1.02B3,2013-05-15 07:51:00,
2013-05-15 03:56:00,39.9,32.6,30.08,SW,220,0.0,0.0,75,0.00,,,0.00,WeatherCatV1.02B3,2013-05-15 07:56:00,
2013-05-15 04:01:00,39.8,32.5,30.08,SW,220,0.0,2.0,75,0.00,,,0.00,WeatherCatV1.02B3,2013-05-15 08:01:00,
2013-05-15 04:06:00,39.7,32.8,30.08,SW,220,2.0,2.0,76,0.00,,,0.00,WeatherCatV1.02B3,2013-05-15 08:06:00,
2013-05-15 04:11:00,39.6,32.7,30.08,SW,220,3.0,4.0,76,0.00,,,0.00,WeatherCatV1.02B3,2013-05-15 08:11:00,
2013-05-15 04:16:00,39.5,32.6,30.08,SW,220,0.0,0.0,76,0.00,,,0.00,WeatherCatV1.02B3,2013-05-15 08:16:00,
2013-05-15 04:21:00,39.4,32.8,30.08,SW,220,0.0,0.0,77,0.00,,,0.00,WeatherCatV1.02B3,2013-05-15 08:21:00,
2013-05-15 04:26:00,39.2,32.3,30.08,SW,220,0.0,0.0,76,0.00,,,0.00,WeatherCatV1.02B3,2013-05-15 08:26:00,
2013-05-15 04:31:00,39.1,32.5,30.07,SW,220,0.0,0.0,77,0.00,,,0.00,WeatherCatV1.02B3,2013-05-15 08:31:00,
2013-05-15 04:36:00,39.0,32.7,30.07,SW,220,1.0,2.0,78,0.00,,,0.00,WeatherCatV1.02B3,2013-05-15 08:36:00,
2013-05-15 04:41:00,38.9,32.6,30.07,SW,220,0.0,0.0,78,0.00,,,0.00,WeatherCatV1.02B3,2013-05-15 08:41:00,
2013-05-15 04:46:00,38.7,32.4,30.08,SW,220,0.0,0.0,78,0.00,,,0.00,WeatherCatV1.02B3,2013-05-15 08:46:00,
2013-05-15 04:51:00,38.5,32.6,30.08,SW,220,0.0,1.0,79,0.00,,,0.00,WeatherCatV1.02B3,2013-05-15 08:51:00,
2013-05-15 04:56:00,38.3,32.4,30.08,SW,220,0.0,0.0,79,0.00,,,0.00,WeatherCatV1.02B3,2013-05-15 08:56:00,
2013-05-15 05:01:00,38.1,32.5,30.08,SW,220,0.0,1.0,80,0.00,,,0.00,WeatherCatV1.02B3,2013-05-15 09:01:00,
2013-05-15 05:06:00,38.0,32.4,30.08,SW,220,0.0,0.0,80,0.00,,,0.00,WeatherCatV1.02B3,2013-05-15 09:06:00,
2013-05-15 05:11:00,37.9,32.3,30.08,SW,220,0.0,1.0,80,0.00,,,0.00,WeatherCatV1.02B3,2013-05-15 09:11:00,
2013-05-15 05:16:00,37.7,32.1,30.08,SW,220,0.0,2.0,80,0.00,,,0.00,WeatherCatV1.02B3,2013-05-15 09:16:00,
2013-05-15 05:21:00,37.6,32.0,30.08,SW,220,0.0,0.0,80,0.00,,,0.00,WeatherCatV1.02B3,2013-05-15 09:21:00,
2013-05-15 05:26:00,37.5,31.9,30.08,SW,220,0.0,0.0,80,0.00,,,0.00,WeatherCatV1.02B3,2013-05-15 09:26:00,
2013-05-15 05:31:00,37.4,31.8,30.08,SW,220,0.0,1.0,80,0.00,,,0.00,WeatherCatV1.02B3,2013-05-15 09:31:00,
2013-05-15 05:36:00,37.4,31.8,30.08,SW,220,0.0,1.0,80,0.00,,,0.00,WeatherCatV1.02B3,2013-05-15 09:36:00,
2013-05-15 05:41:00,37.4,31.8,30.08,SW,220,0.0,1.0,80,0.00,,,0.00,WeatherCatV1.02B3,2013-05-15 09:41:00,
2013-05-15 05:46:00,37.5,32.2,30.08,SW,220,0.0,2.0,81,0.00,,,0.00,WeatherCatV1.02B3,2013-05-15 09:46:00,
2013-05-15 05:51:00,37.5,32.2,30.08,SW,220,0.0,3.0,81,0.00,,,0.00,WeatherCatV1.02B3,2013-05-15 09:51:00,
2013-05-15 05:56:00,37.6,32.3,30.08,SW,220,0.0,0.0,81,0.00,,,0.00,WeatherCatV1.02B3,2013-05-15 09:56:00,
2013-05-15 06:01:00,37.8,32.5,30.07,SW,220,0.0,0.0,81,0.00,,,0.00,WeatherCatV1.02B3,2013-05-15 10:01:00,
2013-05-15 06:06:00,37.8,32.5,30.08,SW,220,0.0,0.0,81,0.00,,,0.00,WeatherCatV1.02B3,2013-05-15 10:06:00,
2013-05-15 06:11:00,37.9,33.2,30.08,SW,220,0.0,0.0,83,0.00,,,0.00,WeatherCatV1.02B3,2013-05-15 10:11:00,
2013-05-15 06:16:00,37.9,33.2,30.08,SW,220,0.0,0.0,83,0.00,,,0.00,WeatherCatV1.02B3,2013-05-15 10:16:00,
2013-05-15 06:21:00,37.9,33.2,30.08,SW,220,0.0,0.0,83,0.00,,,0.00,WeatherCatV1.02B3,2013-05-15 10:21:00,
2013-05-15 06:26:00,37.9,33.8,30.08,SW,220,0.0,0.0,85,0.00,,,0.00,WeatherCatV1.02B3,2013-05-15 10:26:00,
2013-05-15 06:31:00,38.0,33.6,30.08,SW,220,0.0,0.0,84,0.00,,,0.00,WeatherCatV1.02B3,2013-05-15 10:31:00,
2013-05-15 06:36:00,38.2,33.5,30.08,SW,220,0.0,0.0,83,0.00,,,0.00,WeatherCatV1.02B3,2013-05-15 10:36:00,
2013-05-15 06:41:00,38.4,34.3,30.08,SW,220,0.0,0.0,85,0.00,,,0.00,WeatherCatV1.02B3,2013-05-15 10:41:00,
2013-05-15 06:46:00,38.7,34.3,30.08,SW,220,0.0,0.0,84,0.00,,,0.00,WeatherCatV1.02B3,2013-05-15 10:46:00,
2013-05-15 06:51:00,39.1,35.0,30.07,SW,220,0.0,0.0,85,0.00,,,0.00,WeatherCatV1.02B3,2013-05-15 10:51:00,
2013-05-15 06:56:00,39.5,35.7,30.07,SW,220,0.0,0.0,86,0.00,,,0.00,WeatherCatV1.02B3,2013-05-15 10:56:00,
2013-05-15 07:01:00,39.9,36.1,30.07,SW,220,0.0,0.0,86,0.00,,,0.00,WeatherCatV1.02B3,2013-05-15 11:01:00,
2013-05-15 07:06:00,40.3,36.7,30.07,SW,220,0.0,0.0,87,0.00,,,0.00,WeatherCatV1.02B3,2013-05-15 11:06:00,
2013-05-15 07:11:00,40.7,37.1,30.07,SW,220,0.0,0.0,87,0.00,,,0.00,WeatherCatV1.02B3,2013-05-15 11:11:00,
2013-05-15 07:16:00,41.2,37.0,30.07,SW,220,0.0,2.0,85,0.00,,,0.00,WeatherCatV1.02B3,2013-05-15 11:16:00,
2013-05-15 07:21:00,41.9,37.7,30.07,SW,220,0.0,1.0,85,0.00,,,0.00,WeatherCatV1.02B3,2013-05-15 11:21:00,
2013-05-15 07:26:00,42.7,36.0,30.07,SW,220,0.0,3.0,77,0.00,,,0.00,WeatherCatV1.02B3,2013-05-15 11:26:00,
2013-05-15 07:31:00,44.2,33.9,30.07,SW,223,2.0,5.0,67,0.00,,,0.00,WeatherCatV1.02B3,2013-05-15 11:31:00,
2013-05-15 07:36:00,45.9,34.4,30.07,SW,223,1.0,2.0,64,0.00,,,0.00,WeatherCatV1.02B3,2013-05-15 11:36:00,
2013-05-15 07:41:00,47.2,36.8,30.07,SW,223,0.0,0.0,67,0.00,,,0.00,WeatherCatV1.02B3,2013-05-15 11:41:00,
2013-05-15 07:46:00,48.4,34.7,30.07,SW,223,4.0,4.0,59,0.00,,,0.00,WeatherCatV1.02B3,2013-05-15 11:46:00,
2013-05-15 07:51:00,49.9,33.9,30.07,SW,223,4.0,5.0,54,0.00,,,0.00,WeatherCatV1.02B3,2013-05-15 11:51:00,
2013-05-15 07:56:00,51.2,34.7,30.06,SW,223,0.0,1.0,53,0.00,,,0.00,WeatherCatV1.02B3,2013-05-15 11:56:00,
2013-05-15 08:01:00,52.5,36.8,30.06,SW,223,0.0,1.0,55,0.00,,,0.00,WeatherCatV1.02B3,2013-05-15 12:01:00,
2013-05-15 08:06:00,53.5,33.8,30.06,SSW,211,0.0,3.0,47,0.00,,,0.00,WeatherCatV1.02B3,2013-05-15 12:06:00,
2013-05-15 08:11:00,54.3,32.9,30.06,SSW,211,0.0,0.0,44,0.00,,,0.00,WeatherCatV1.02B3,2013-05-15 12:11:00,
2013-05-15 08:16:00,54.6,33.7,30.06,SSW,201,1.0,6.0,45,0.00,,,0.00,WeatherCatV1.02B3,2013-05-15 12:16:00,
2013-05-15 08:21:00,54.8,32.7,30.06,SSW,209,2.0,6.0,43,0.00,,,0.00,WeatherCatV1.02B3,2013-05-15 12:21:00,
2013-05-15 08:26:00,54.9,33.4,30.06,SSW,210,0.0,1.0,44,0.00,,,0.00,WeatherCatV1.02B3,2013-05-15 12:26:00,
2013-05-15 08:31:00,55.0,32.9,30.06,WSW,237,4.0,7.0,43,0.00,,,0.00,WeatherCatV1.02B3,2013-05-15 12:31:00,
2013-05-15 08:36:00,55.1,34.1,30.06,South,184,0.0,1.0,45,0.00,,,0.00,WeatherCatV1.02B3,2013-05-15 12:36:00,
2013-05-15 08:41:00,55.6,36.7,30.05,South,184,0.0,1.0,49,0.00,,,0.00,WeatherCatV1.02B3,2013-05-15 12:41:00,
2013-05-15 08:46:00,55.8,35.9,30.05,SSE,163,0.0,1.0,47,0.00,,,0.00,WeatherCatV1.02B3,2013-05-15 12:46:00,
2013-05-15 08:51:00,56.1,34.5,30.05,SSE,147,4.0,6.0,44,0.00,,,0.00,WeatherCatV1.02B3,2013-05-15 12:51:00,
2013-05-15 08:56:00,56.0,33.8,30.04,SSE,159,5.0,6.0,43,0.00,,,0.00,WeatherCatV1.02B3,2013-05-15 12:56:00,
2013-05-15 09:01:00,56.0,35.0,30.04,SSW,207,2.0,6.0,45,0.00,,,0.00,WeatherCatV1.02B3,2013-05-15 13:01:00,
2013-05-15 09:06:00,56.0,34.4,30.04,SSW,194,4.0,5.0,44,0.00,,,0.00,WeatherCatV1.02B3,2013-05-15 13:06:00,
2013-05-15 09:11:00,56.3,34.1,30.03,East,101,2.0,6.0,43,0.00,,,0.00,WeatherCatV1.02B3,2013-05-15 13:11:00,
2013-05-15 09:16:00,56.6,35.5,30.03,WSW,237,3.0,8.0,45,0.00,,,0.00,WeatherCatV1.02B3,2013-05-15 13:16:00,
2013-05-15 09:21:00,57.1,34.2,30.03,SSE,159,2.0,9.0,42,0.00,,,0.00,WeatherCatV1.02B3,2013-05-15 13:21:00,
2013-05-15 09:26:00,57.4,36.2,30.03,WSW,241,6.0,7.0,45,0.00,,,0.00,WeatherCatV1.02B3,2013-05-15 13:26:00,
2013-05-15 09:31:00,57.7,35.9,30.02,South,174,4.0,4.0,44,0.00,,,0.00,WeatherCatV1.02B3,2013-05-15 13:31:00,
2013-05-15 09:36:00,58.3,35.9,30.02,West,266,1.0,11.0,43,0.00,,,0.00,WeatherCatV1.02B3,2013-05-15 13:36:00,
2013-05-15 09:41:00,58.7,35.7,30.02,WNW,301,5.0,16.0,42,0.00,,,0.00,WeatherCatV1.02B3,2013-05-15 13:41:00,
2013-05-15 09:46:00,58.6,35.6,30.02,SW,221,6.0,9.0,42,0.00,,,0.00,WeatherCatV1.02B3,2013-05-15 13:46:00,
2013-05-15 09:51:00,58.9,35.2,30.01,SE,142,5.0,15.0,41,0.00,,,0.00,WeatherCatV1.02B3,2013-05-15 13:51:00,
2013-05-15 09:56:00,59.2,36.7,30.01,SSW,211,4.0,4.0,43,0.00,,,0.00,WeatherCatV1.02B3,2013-05-15 13:56:00,
2013-05-15 10:01:00,59.8,34.8,30.00,ESE,102,2.0,6.0,39,0.00,,,0.00,WeatherCatV1.02B3,2013-05-15 14:01:00,
2013-05-15 10:06:00,60.2,37.0,30.00,South,186,1.0,8.0,42,0.00,,,0.00,WeatherCatV1.02B3,2013-05-15 14:06:00,
2013-05-15 10:11:00,60.7,37.5,30.00,WNW,294,7.0,8.0,42,0.00,,,0.00,WeatherCatV1.02B3,2013-05-15 14:11:00,
2013-05-15 10:18:00,61.1,36.6,30.00,WSW,238,0.0,4.0,40,0.00,,,0.00,WeatherCatV1.02B3,2013-05-15 14:18:00,
2013-05-15 10:23:00,61.2,36.0,30.00,SW,214,4.0,10.0,39,0.00,,,0.00,WeatherCatV1.02B3,2013-05-15 14:23:00,
2013-05-15 10:28:00,60.9,35.1,29.99,SW,221,5.0,10.0,38,0.00,,,0.00,WeatherCatV1.02B3,2013-05-15 14:28:00,
2013-05-15 10:33:00,61.1,36.0,29.99,SSE,152,2.0,10.0,39,0.00,,,0.00,WeatherCatV1.02B3,2013-05-15 14:33:00,
2013-05-15 10:38:00,61.4,37.5,29.99,SW,232,5.0,9.0,41,0.00,,,0.00,WeatherCatV1.02B3,2013-05-15 14:38:00,
2013-05-15 10:43:00,61.0,35.9,29.99,SW,231,2.0,13.0,39,0.00,,,0.00,WeatherCatV1.02B3,2013-05-15 14:43:00,
2013-05-15 10:48:00,60.6,36.1,29.99,NNW,331,7.0,7.0,40,0.00,,,0.00,WeatherCatV1.02B3,2013-05-15 14:48:00,
2013-05-15 10:51:00,60.2,37.0,29.99,WSW,257,0.0,11.0,42,0.00,,,0.00,WeatherCatV1.02B3,2013-05-15 14:51:00,
2013-05-15 10:56:00,60.0,37.4,29.99,WSW,240,2.0,9.0,43,0.00,,,0.00,WeatherCatV1.02B3,2013-05-15 14:56:00,
2013-05-15 11:01:00,60.4,37.8,29.99,South,169,2.0,5.0,43,0.00,,,0.00,WeatherCatV1.02B3,2013-05-15 15:01:00,
2013-05-15 11:06:00,60.4,37.2,29.99,SSW,205,0.0,14.0,42,0.00,,,0.00,WeatherCatV1.02B3,2013-05-15 15:06:00,
2013-05-15 11:11:00,60.1,38.1,29.99,SW,236,11.0,16.0,44,0.00,,,0.00,WeatherCatV1.02B3,2013-05-15 15:11:00,
2013-05-15 11:16:00,59.8,37.3,29.99,SSW,194,1.0,16.0,43,0.00,,,0.00,WeatherCatV1.02B3,2013-05-15 15:16:00,
2013-05-15 11:21:00,59.6,36.5,29.99,NW,307,4.0,11.0,42,0.00,,,0.00,WeatherCatV1.02B3,2013-05-15 15:21:00,
2013-05-15 11:26:00,60.0,36.8,29.99,SW,215,1.0,7.0,42,0.00,,,0.00,WeatherCatV1.02B3,2013-05-15 15:26:00,
2013-05-15 11:31:00,60.4,36.0,29.98,SW,223,12.0,12.0,40,0.00,,,0.00,WeatherCatV1.02B3,2013-05-15 15:31:00,
2013-05-15 11:36:00,60.1,35.7,29.98,SSW,200,2.0,12.0,40,0.00,,,0.00,WeatherCatV1.02B3,2013-05-15 15:36:00,
2013-05-15 11:41:00,60.2,35.8,29.98,SW,232,10.0,13.0,40,0.00,,,0.00,WeatherCatV1.02B3,2013-05-15 15:41:00,
2013-05-15 11:46:00,60.9,34.5,29.98,ENE,78,0.0,18.0,37,0.00,,,0.00,WeatherCatV1.02B3,2013-05-15 15:46:00,
2013-05-15 11:51:00,61.1,32.5,29.98,SSW,198,3.0,8.0,34,0.00,,,0.00,WeatherCatV1.02B3,2013-05-15 15:51:00,
2013-05-15 11:56:00,61.1,33.9,29.98,SSW,197,3.0,17.0,36,0.00,,,0.00,WeatherCatV1.02B3,2013-05-15 15:56:00,
2013-05-15 12:01:00,60.7,36.9,29.98,ESE,122,2.0,7.0,41,0.00,,,0.00,WeatherCatV1.02B3,2013-05-15 16:01:00,
2013-05-15 12:06:00,60.6,36.8,29.98,SW,221,8.0,12.0,41,0.00,,,0.00,WeatherCatV1.02B3,2013-05-15 16:06:00,
2013-05-15 12:11:00,60.8,37.0,29.97,SE,145,5.0,8.0,41,0.00,,,0.00,WeatherCatV1.02B3,2013-05-15 16:11:00,
2013-05-15 12:16:00,61.0,35.9,29.97,SW,222,6.0,15.0,39,0.00,,,0.00,WeatherCatV1.02B3,2013-05-15 16:16:00,
2013-05-15 12:21:00,61.1,37.2,29.97,SSW,196,8.0,19.0,41,0.00,,,0.00,WeatherCatV1.02B3,2013-05-15 16:21:00,
2013-05-15 12:26:00,61.3,36.8,29.96,WSW,258,1.0,12.0,40,0.00,,,0.00,WeatherCatV1.02B3,2013-05-15 16:26:00,
2013-05-15 12:31:00,60.9,38.3,29.97,WNW,300,10.0,15.0,43,0.00,,,0.00,WeatherCatV1.02B3,2013-05-15 16:31:00,
2013-05-15 12:36:00,60.7,38.7,29.97,West,278,3.0,8.0,44,0.00,,,0.00,WeatherCatV1.02B3,2013-05-15 16:36:00,
2013-05-15 12:41:00,60.8,38.7,29.96,SSE,159,4.0,12.0,44,0.00,,,0.00,WeatherCatV1.02B3,2013-05-15 16:41:00,
2013-05-15 12:46:00,60.5,39.1,29.96,SW,215,1.0,11.0,45,0.00,,,0.00,WeatherCatV1.02B3,2013-05-15 16:46:00,
2013-05-15 12:51:00,60.8,39.9,29.96,WNW,292,3.0,8.0,46,0.00,,,0.00,WeatherCatV1.02B3,2013-05-15 16:51:00,
2013-05-15 12:56:00,61.1,40.2,29.95,West,273,0.0,11.0,46,0.00,,,0.00,WeatherCatV1.02B3,2013-05-15 16:56:00,
2013-05-15 13:01:00,61.2,40.3,29.95,NE,38,6.0,11.0,46,0.00,,,0.00,WeatherCatV1.02B3,2013-05-15 17:01:00,
2013-05-15 13:06:00,61.2,38.5,29.94,WSW,242,8.0,10.0,43,0.00,,,0.00,WeatherCatV1.02B3,2013-05-15 17:06:00,
2013-05-15 13:11:00,61.3,39.8,29.94,South,183,6.0,8.0,45,0.00,,,0.00,WeatherCatV1.02B3,2013-05-15 17:11:00,
2013-05-15 13:16:00,61.4,39.3,29.94,SE,146,6.0,8.0,44,0.00,,,0.00,WeatherCatV1.02B3,2013-05-15 17:16:00,
2013-05-15 13:21:00,61.7,38.4,29.93,SSE,150,7.0,9.0,42,0.00,,,0.00,WeatherCatV1.02B3,2013-05-15 17:21:00,
2013-05-15 13:26:00,61.8,39.1,29.93,SW,220,7.0,9.0,43,0.00,,,0.00,WeatherCatV1.02B3,2013-05-15 17:26:00,
2013-05-15 13:31:00,61.9,40.9,29.93,SE,138,2.0,5.0,46,0.00,,,0.00,WeatherCatV1.02B3,2013-05-15 17:31:00,
2013-05-15 13:36:00,62.3,38.9,29.93,SSE,163,6.0,13.0,42,0.00,,,0.00,WeatherCatV1.02B3,2013-05-15 17:36:00,
2013-05-15 13:41:00,62.1,39.3,29.92,SW,221,9.0,12.0,43,0.00,,,0.00,WeatherCatV1.02B3,2013-05-15 17:41:00,
2013-05-15 13:46:00,61.9,39.7,29.92,SSW,203,5.0,12.0,44,0.00,,,0.00,WeatherCatV1.02B3,2013-05-15 17:46:00,
2013-05-15 13:51:00,61.7,39.6,29.91,South,182,2.0,15.0,44,0.00,,,0.00,WeatherCatV1.02B3,2013-05-15 17:51:00,
2013-05-15 13:56:00,61.6,39.5,29.90,ESE,112,4.0,5.0,44,0.00,,,0.00,WeatherCatV1.02B3,2013-05-15 17:56:00,
2013-05-15 14:01:00,61.5,39.4,29.90,South,188,6.0,17.0,44,0.00,,,0.00,WeatherCatV1.02B3,2013-05-15 18:01:00,
2013-05-15 14:06:00,61.3,39.8,29.90,SW,234,8.0,8.0,45,0.00,,,0.00,WeatherCatV1.02B3,2013-05-15 18:06:00,
2013-05-15 14:11:00,61.2,39.1,29.89,SE,130,0.0,9.0,44,0.00,,,0.00,WeatherCatV1.02B3,2013-05-15 18:11:00,
2013-05-15 14:16:00,61.0,39.5,29.89,SSW,207,0.0,10.0,45,0.00,,,0.00,WeatherCatV1.02B3,2013-05-15 18:16:00,
2013-05-15 14:21:00,60.8,38.7,29.89,SSE,150,1.0,17.0,44,0.00,,,0.00,WeatherCatV1.02B3,2013-05-15 18:21:00,
2013-05-15 14:26:00,60.5,38.5,29.89,South,173,10.0,13.0,44,0.00,,,0.00,WeatherCatV1.02B3,2013-05-15 18:26:00,
2013-05-15 14:31:00,60.3,38.9,29.89,SSW,200,6.0,11.0,45,0.00,,,0.00,WeatherCatV1.02B3,2013-05-15 18:31:00,
2013-05-15 14:36:00,60.3,40.0,29.89,SSE,163,6.0,8.0,47,0.00,,,0.00,WeatherCatV1.02B3,2013-05-15 18:36:00,
2013-05-15 14:41:00,60.2,39.3,29.88,SW,233,2.0,15.0,46,0.00,,,0.00,WeatherCatV1.02B3,2013-05-15 18:41:00,
2013-05-15 14:46:00,60.1,38.7,29.88,SSW,196,4.0,14.0,45,0.00,,,0.00,WeatherCatV1.02B3,2013-05-15 18:46:00,
2013-05-15 14:53:00,60.0,39.2,29.88,SW,232,4.0,17.0,46,0.00,,,0.00,WeatherCatV1.02B3,2013-05-15 18:53:00,
2013-05-15 14:58:00,60.0,39.2,29.88,SE,144,5.0,5.0,46,0.00,,,0.00,WeatherCatV1.02B3,2013-05-15 18:58:00,
2013-05-15 15:03:00,59.9,39.1,29.89,SE,145,6.0,9.0,46,0.00,,,0.00,WeatherCatV1.02B3,2013-05-15 19:03:00,
2013-05-15 15:08:00,60.0,39.7,29.89,SW,227,11.0,17.0,47,0.00,,,0.00,WeatherCatV1.02B3,2013-05-15 19:08:00,
2013-05-15 15:13:00,59.6,40.4,29.88,SSW,206,2.0,16.0,49,0.00,,,0.00,WeatherCatV1.02B3,2013-05-15 19:13:00,
2013-05-15 15:18:00,59.2,42.6,29.87,SSW,196,5.0,5.0,54,0.00,,,0.00,WeatherCatV1.02B3,2013-05-15 19:18:00,
2013-05-15 15:23:00,58.3,43.1,29.87,WSW,238,0.0,12.0,57,0.00,,,0.00,WeatherCatV1.02B3,2013-05-15 19:23:00,
2013-05-15 15:28:00,57.4,44.1,29.87,West,277,8.0,8.0,61,0.00,,,0.00,WeatherCatV1.02B3,2013-05-15 19:28:00,
2013-05-15 15:35:00,56.3,46.3,29.86,SSE,150,4.0,11.0,69,0.00,,,0.01,WeatherCatV1.02B3,2013-05-15 19:35:00,
2013-05-15 15:40:00,55.7,46.1,29.86,SSW,196,0.0,8.0,70,0.00,,,0.01,WeatherCatV1.02B3,2013-05-15 19:40:00,
2013-05-15 15:45:00,55.3,46.4,29.87,SSW,209,0.0,0.0,72,0.00,,,0.01,WeatherCatV1.02B3,2013-05-15 19:45:00,
2013-05-15 15:50:00,55.0,47.6,29.86,WNW,298,0.0,3.0,76,0.00,,,0.01,WeatherCatV1.02B3,2013-05-15 19:50:00,
2013-05-15 15:55:00,54.6,47.5,29.86,SE,138,1.0,1.0,77,0.00,,,0.02,WeatherCatV1.02B3,2013-05-15 19:55:00,
2013-05-15 16:00:00,54.3,47.9,29.84,SSE,159,5.0,9.0,79,0.00,,,0.02,WeatherCatV1.02B3,2013-05-15 20:00:00,
2013-05-15 16:05:00,54.1,48.7,29.83,SSE,148,1.0,5.0,82,0.00,,,0.02,WeatherCatV1.02B3,2013-05-15 20:05:00,
2013-05-15 16:10:00,54.2,49.8,29.82,SSE,150,2.0,6.0,85,0.04,,,0.03,WeatherCatV1.02B3,2013-05-15 20:10:00,
2013-05-15 16:15:00,54.5,50.1,29.82,SSE,166,4.0,16.0,85,0.04,,,0.03,WeatherCatV1.02B3,2013-05-15 20:15:00,
2013-05-15 16:20:00,54.8,50.4,29.81,SSE,155,1.0,7.0,85,0.04,,,0.03,WeatherCatV1.02B3,2013-05-15 20:20:00,
2013-05-15 16:25:00,54.9,50.5,29.81,SSE,167,9.0,13.0,85,0.04,,,0.03,WeatherCatV1.02B3,2013-05-15 20:25:00,
2013-05-15 16:30:00,54.9,50.2,29.81,SW,216,10.0,10.0,84,0.00,,,0.03,WeatherCatV1.02B3,2013-05-15 20:30:00,
2013-05-15 16:35:00,55.0,50.9,29.81,NW,322,0.0,8.0,86,0.00,,,0.03,WeatherCatV1.02B3,2013-05-15 20:35:00,
2013-05-15 16:40:00,55.1,50.7,29.82,SSE,161,4.0,13.0,85,0.00,,,0.03,WeatherCatV1.02B3,2013-05-15 20:40:00,
2013-05-15 16:45:00,55.0,50.3,29.80,SSW,198,9.0,11.0,84,0.00,,,0.03,WeatherCatV1.02B3,2013-05-15 20:45:00,
2013-05-15 16:50:00,55.0,50.6,29.80,SSW,206,6.0,13.0,85,0.00,,,0.03,WeatherCatV1.02B3,2013-05-15 20:50:00,
2013-05-15 16:55:00,54.8,50.7,29.79,South,188,1.0,8.0,86,0.00,,,0.03,WeatherCatV1.02B3,2013-05-15 20:55:00,
2013-05-15 17:00:00,54.8,51.0,29.79,SW,227,9.0,10.0,87,0.00,,,0.03,WeatherCatV1.02B3,2013-05-15 21:00:00,
2013-05-15 17:05:00,54.6,50.8,29.79,SSE,163,0.0,8.0,87,0.00,,,0.04,WeatherCatV1.02B3,2013-05-15 21:05:00,
2013-05-15 17:10:00,54.3,51.1,29.79,WNW,296,3.0,5.0,89,0.00,,,0.04,WeatherCatV1.02B3,2013-05-15 21:10:00,
2013-05-15 17:15:00,54.1,50.9,29.79,SSE,153,2.0,4.0,89,0.00,,,0.04,WeatherCatV1.02B3,2013-05-15 21:15:00,
2013-05-15 17:20:00,53.9,51.0,29.78,South,176,6.0,8.0,90,0.00,,,0.04,WeatherCatV1.02B3,2013-05-15 21:20:00,
2013-05-15 17:25:00,53.8,50.9,29.78,SE,142,1.0,6.0,90,0.00,,,0.04,WeatherCatV1.02B3,2013-05-15 21:25:00,
2013-05-15 17:30:00,53.7,50.8,29.78,East,86,3.0,8.0,90,0.00,,,0.04,WeatherCatV1.02B3,2013-05-15 21:30:00,
2013-05-15 17:35:00,53.6,50.7,29.78,SSE,167,0.0,8.0,90,0.00,,,0.04,WeatherCatV1.02B3,2013-05-15 21:35:00,
2013-05-15 17:40:00,53.6,51.0,29.78,SSE,167,1.0,5.0,91,0.00,,,0.04,WeatherCatV1.02B3,2013-05-15 21:40:00,
2013-05-15 17:45:00,53.6,51.0,29.77,SE,142,4.0,7.0,91,0.00,,,0.04,WeatherCatV1.02B3,2013-05-15 21:45:00,
2013-05-15 17:50:00,53.7,51.1,29.75,South,190,4.0,13.0,91,0.00,,,0.04,WeatherCatV1.02B3,2013-05-15 21:50:00,
2013-05-15 17:55:00,53.7,51.1,29.76,SSE,168,6.0,10.0,91,0.00,,,0.04,WeatherCatV1.02B3,2013-05-15 21:55:00,
2013-05-15 18:00:00,53.8,51.2,29.76,SSW,192,2.0,6.0,91,0.00,,,0.04,WeatherCatV1.02B3,2013-05-15 22:00:00,
2013-05-15 18:05:00,53.8,51.2,29.75,ESE,106,2.0,8.0,91,0.00,,,0.04,WeatherCatV1.02B3,2013-05-15 22:05:00,
2013-05-15 18:10:00,53.9,51.3,29.75,South,175,2.0,9.0,91,0.00,,,0.04,WeatherCatV1.02B3,2013-05-15 22:10:00,
2013-05-15 18:15:00,54.0,51.4,29.75,WSW,250,3.0,6.0,91,0.00,,,0.04,WeatherCatV1.02B3,2013-05-15 22:15:00,
2013-05-15 18:20:00,54.0,51.4,29.75,SSE,151,1.0,8.0,91,0.00,,,0.04,WeatherCatV1.02B3,2013-05-15 22:20:00,
2013-05-15 18:25:00,54.1,51.5,29.74,SSW,212,0.0,6.0,91,0.00,,,0.04,WeatherCatV1.02B3,2013-05-15 22:25:00,
2013-05-15 18:30:00,54.1,51.2,29.74,SW,226,2.0,6.0,90,0.00,,,0.04,WeatherCatV1.02B3,2013-05-15 22:30:00,
2013-05-15 18:35:00,54.1,51.2,29.74,SE,142,4.0,16.0,90,0.00,,,0.04,WeatherCatV1.02B3,2013-05-15 22:35:00,
2013-05-15 18:40:00,54.2,51.3,29.74,SE,134,0.0,10.0,90,0.00,,,0.04,WeatherCatV1.02B3,2013-05-15 22:40:00,
2013-05-15 18:45:00,54.2,51.3,29.75,WSW,241,3.0,9.0,90,0.00,,,0.04,WeatherCatV1.02B3,2013-05-15 22:45:00,
2013-05-15 18:50:00,54.3,51.1,29.76,SSW,195,4.0,6.0,89,0.00,,,0.04,WeatherCatV1.02B3,2013-05-15 22:50:00,
2013-05-15 18:55:00,54.4,51.2,29.76,South,190,14.0,14.0,89,0.00,,,0.04,WeatherCatV1.02B3,2013-05-15 22:55:00,
2013-05-15 19:00:00,54.5,51.3,29.76,SSE,161,4.0,6.0,89,0.00,,,0.04,WeatherCatV1.02B3,2013-05-15 23:00:00,
2013-05-15 19:05:00,54.5,51.3,29.75,South,190,8.0,11.0,89,0.00,,,0.04,WeatherCatV1.02B3,2013-05-15 23:05:00,
2013-05-15 19:10:00,54.5,51.3,29.76,SW,236,2.0,5.0,89,0.00,,,0.04,WeatherCatV1.02B3,2013-05-15 23:10:00,
2013-05-15 19:15:00,54.5,51.3,29.75,SSE,164,5.0,10.0,89,0.00,,,0.04,WeatherCatV1.02B3,2013-05-15 23:15:00,
2013-05-15 19:20:00,54.5,51.3,29.75,SSW,209,6.0,7.0,89,0.00,,,0.04,WeatherCatV1.02B3,2013-05-15 23:20:00,
2013-05-15 19:25:00,54.6,51.4,29.75,SSE,159,5.0,5.0,89,0.00,,,0.04,WeatherCatV1.02B3,2013-05-15 23:25:00,
2013-05-15 19:30:00,54.6,51.4,29.75,SSW,192,0.0,7.0,89,0.00,,,0.04,WeatherCatV1.02B3,2013-05-15 23:30:00,
2013-05-15 19:35:00,54.7,51.5,29.75,WSW,243,1.0,10.0,89,0.00,,,0.04,WeatherCatV1.02B3,2013-05-15 23:35:00,
2013-05-15 19:40:00,54.7,52.4,29.75,SW,230,5.0,7.0,92,0.00,,,0.04,WeatherCatV1.02B3,2013-05-15 23:40:00,
2013-05-15 19:45:00,54.8,51.6,29.75,SW,230,0.0,0.0,89,0.00,,,0.04,WeatherCatV1.02B3,2013-05-15 23:45:00,
2013-05-15 19:50:00,54.8,51.6,29.74,SSE,161,4.0,7.0,89,0.00,,,0.04,WeatherCatV1.02B3,2013-05-15 23:50:00,
2013-05-15 19:55:00,54.9,51.7,29.74,SSE,150,5.0,7.0,89,0.00,,,0.04,WeatherCatV1.02B3,2013-05-15 23:55:00,
2013-05-15 20:00:00,54.9,51.7,29.73,SW,215,2.0,2.0,89,0.00,,,0.04,WeatherCatV1.02B3,2013-05-16 00:00:00,
2013-05-15 20:05:00,54.9,51.7,29.73,SSW,209,2.0,5.0,89,0.00,,,0.04,WeatherCatV1.02B3,2013-05-16 00:05:00,
2013-05-15 20:10:00,55.0,51.8,29.72,SSE,150,2.0,5.0,89,0.00,,,0.04,WeatherCatV1.02B3,2013-05-16 00:10:00,
2013-05-15 20:15:00,55.0,51.8,29.72,SSW,194,6.0,6.0,89,0.00,,,0.04,WeatherCatV1.02B3,2013-05-16 00:15:00,
2013-05-15 20:20:00,55.0,51.8,29.72,SW,225,1.0,9.0,89,0.00,,,0.04,WeatherCatV1.02B3,2013-05-16 00:20:00,
2013-05-15 20:25:00,55.0,51.8,29.72,South,175,5.0,5.0,89,0.00,,,0.04,WeatherCatV1.02B3,2013-05-16 00:25:00,
2013-05-15 20:30:00,55.0,51.8,29.72,WSW,254,0.0,6.0,89,0.00,,,0.04,WeatherCatV1.02B3,2013-05-16 00:30:00,
2013-05-15 20:35:00,54.9,51.7,29.72,SSW,211,7.0,7.0,89,0.00,,,0.04,WeatherCatV1.02B3,2013-05-16 00:35:00,
2013-05-15 20:40:00,54.9,51.7,29.72,SSW,209,0.0,4.0,89,0.00,,,0.04,WeatherCatV1.02B3,2013-05-16 00:40:00,
2013-05-15 20:45:00,54.9,51.7,29.72,South,169,2.0,6.0,89,0.00,,,0.04,WeatherCatV1.02B3,2013-05-16 00:45:00,
2013-05-15 20:50:00,54.9,51.7,29.72,South,183,0.0,7.0,89,0.00,,,0.04,WeatherCatV1.02B3,2013-05-16 00:50:00,
2013-05-15 20:55:00,54.8,51.6,29.72,South,180,2.0,5.0,89,0.00,,,0.04,WeatherCatV1.02B3,2013-05-16 00:55:00,
2013-05-15 21:00:00,54.8,51.6,29.72,SSW,202,2.0,4.0,89,0.00,,,0.04,WeatherCatV1.02B3,2013-05-16 01:00:00,
2013-05-15 21:05:00,54.8,51.6,29.72,West,263,0.0,7.0,89,0.00,,,0.04,WeatherCatV1.02B3,2013-05-16 01:05:00,
2013-05-15 21:10:00,54.7,51.5,29.72,South,184,6.0,9.0,89,0.00,,,0.04,WeatherCatV1.02B3,2013-05-16 01:10:00,
2013-05-15 21:15:00,54.7,52.4,29.72,SSE,153,4.0,5.0,92,0.00,,,0.04,WeatherCatV1.02B3,2013-05-16 01:15:00,
2013-05-15 21:20:00,54.6,51.4,29.72,SSW,211,4.0,5.0,89,0.00,,,0.04,WeatherCatV1.02B3,2013-05-16 01:20:00,
2013-05-15 21:25:00,54.6,51.4,29.72,South,169,4.0,10.0,89,0.00,,,0.04,WeatherCatV1.02B3,2013-05-16 01:25:00,
2013-05-15 21:30:00,54.5,51.6,29.72,ESE,119,0.0,4.0,90,0.00,,,0.04,WeatherCatV1.02B3,2013-05-16 01:30:00,
2013-05-15 21:35:00,54.4,51.5,29.72,SSW,208,0.0,6.0,90,0.00,,,0.04,WeatherCatV1.02B3,2013-05-16 01:35:00,
2013-05-15 21:40:00,54.3,51.4,29.71,SW,215,0.0,4.0,90,0.00,,,0.04,WeatherCatV1.02B3,2013-05-16 01:40:00,
2013-05-15 21:45:00,54.2,51.3,29.72,WSW,252,0.0,6.0,90,0.00,,,0.04,WeatherCatV1.02B3,2013-05-16 01:45:00,
2013-05-15 21:50:00,54.1,51.2,29.72,WSW,250,0.0,3.0,90,0.00,,,0.04,WeatherCatV1.02B3,2013-05-16 01:50:00,
2013-05-15 21:55:00,54.1,51.2,29.72,WSW,250,0.0,0.0,90,0.00,,,0.04,WeatherCatV1.02B3,2013-05-16 01:55:00,
2013-05-15 22:00:00,54.0,51.4,29.72,WSW,250,1.0,2.0,91,0.00,,,0.04,WeatherCatV1.02B3,2013-05-16 02:00:00,
2013-05-15 22:05:00,53.9,51.3,29.72,SW,235,0.0,5.0,91,0.00,,,0.04,WeatherCatV1.02B3,2013-05-16 02:05:00,
2013-05-15 22:10:00,53.8,51.2,29.71,SW,235,0.0,2.0,91,0.00,,,0.04,WeatherCatV1.02B3,2013-05-16 02:10:00,
2013-05-15 22:15:00,53.6,51.0,29.71,SW,236,0.0,0.0,91,0.00,,,0.04,WeatherCatV1.02B3,2013-05-16 02:15:00,
2013-05-15 22:20:00,53.5,50.9,29.71,SSW,206,0.0,1.0,91,0.00,,,0.04,WeatherCatV1.02B3,2013-05-16 02:20:00,
2013-05-15 22:25:00,53.4,50.8,29.71,SSW,206,0.0,6.0,91,0.00,,,0.04,WeatherCatV1.02B3,2013-05-16 02:25:00,
2013-05-15 22:30:00,53.4,51.1,29.71,SSW,206,0.0,1.0,92,0.00,,,0.04,WeatherCatV1.02B3,2013-05-16 02:30:00,
2013-05-15 22:35:00,53.3,51.0,29.71,SSW,207,0.0,3.0,92,0.00,,,0.04,WeatherCatV1.02B3,2013-05-16 02:35:00,
2013-05-15 22:40:00,53.2,50.9,29.72,SSW,206,0.0,3.0,92,0.00,,,0.04,WeatherCatV1.02B3,2013-05-16 02:40:00,
2013-05-15 22:45:00,53.1,50.8,29.72,SSW,206,0.0,1.0,92,0.00,,,0.04,WeatherCatV1.02B3,2013-05-16 02:45:00,
2013-05-15 22:50:00,53.0,50.7,29.72,SSW,206,1.0,2.0,92,0.00,,,0.04,WeatherCatV1.02B3,2013-05-16 02:50:00,
2013-05-15 22:55:00,52.8,50.5,29.72,SW,217,2.0,4.0,92,0.00,,,0.04,WeatherCatV1.02B3,2013-05-16 02:55:00,
2013-05-15 23:00:00,52.8,50.5,29.72,SSW,193,0.0,0.0,92,0.00,,,0.04,WeatherCatV1.02B3,2013-05-16 03:00:00,
2013-05-15 23:06:00,52.8,50.5,29.72,South,191,2.0,7.0,92,0.00,,,0.04,WeatherCatV1.02B3,2013-05-16 03:06:00,
2013-05-15 23:11:00,52.9,50.6,29.71,SW,214,0.0,5.0,92,0.00,,,0.04,WeatherCatV1.02B3,2013-05-16 03:11:00,
2013-05-15 23:16:00,52.8,50.5,29.71,SSW,205,0.0,3.0,92,0.00,,,0.04,WeatherCatV1.02B3,2013-05-16 03:16:00,
2013-05-15 23:21:00,52.8,50.5,29.71,WSW,251,0.0,6.0,92,0.00,,,0.04,WeatherCatV1.02B3,2013-05-16 03:21:00,
2013-05-15 23:26:00,52.9,50.9,29.71,SSW,209,0.0,10.0,93,0.00,,,0.04,WeatherCatV1.02B3,2013-05-16 03:26:00,
2013-05-15 23:31:00,52.9,50.9,29.71,WSW,244,0.0,5.0,93,0.00,,,0.04,WeatherCatV1.02B3,2013-05-16 03:31:00,
2013-05-15 23:36:00,53.0,51.0,29.71,SW,219,4.0,7.0,93,0.00,,,0.04,WeatherCatV1.02B3,2013-05-16 03:36:00,
2013-05-15 23:41:00,53.0,51.0,29.70,South,188,1.0,7.0,93,0.00,,,0.04,WeatherCatV1.02B3,2013-05-16 03:41:00,
2013-05-15 23:46:00,53.0,51.0,29.70,SSW,205,3.0,7.0,93,0.00,,,0.04,WeatherCatV1.02B3,2013-05-16 03:46:00,
2013-05-15 23:51:00,53.1,51.1,29.70,SW,223,0.0,3.0,93,0.00,,,0.04,WeatherCatV1.02B3,2013-05-16 03:51:00,
2013-05-15 23:56:00,53.1,51.1,29.70,WSW,247,0.0,0.0,93,0.00,,,0.04,WeatherCatV1.02B3,2013-05-16 03:56:00,